Time,TemperatureF,DewpointF,PressureIn,WindDirection,WindDirectionDegrees,WindSpeedMPH,WindSpeedGustMPH,Humidity,HourlyPrecipIn,Conditions,Clouds,dailyrainin,SoftwareType,DateUTC
2013-06-08 00:11:00,78.7,74.0,29.97,SW,217,3.0,7.0,86,0.00,,,0.00,weatherlink.com 1.10,2013-06-08 04:11:00,
2013-06-08 00:26:00,78.8,74.0,29.97,SSW,212,2.0,5.0,86,0.00,,,0.00,weatherlink.com 1.10,2013-06-08 04:26:00,
2013-06-08 00:41:00,78.7,75.0,29.97,SSW,211,4.0,6.0,87,0.00,,,0.00,weatherlink.com 1.10,2013-06-08 04:41:00,
2013-06-08 00:56:00,78.6,74.0,29.97,WSW,249,3.0,5.0,86,0.00,,,0.00,weatherlink.com 1.10,2013-06-08 04:56:00,
2013-06-08 01:11:00,78.7,74.0,29.97,SSW,205,3.0,7.0,86,0.00,,,0.00,weatherlink.com 1.10,2013-06-08 05:11:00,
2013-06-08 01:26:00,78.7,74.0,29.98,WSW,242,3.0,6.0,86,0.00,,,0.00,weatherlink.com 1.10,2013-06-08 05:26:00,
2013-06-08 01:41:00,78.8,74.0,29.98,WSW,250,1.0,4.0,85,0.00,,,0.00,weatherlink.com 1.10,2013-06-08 05:41:00,
2013-06-08 01:56:00,78.7,75.0,29.97,SSW,204,4.0,5.0,87,0.00,,,0.00,weatherlink.com 1.10,2013-06-08 05:56:00,
2013-06-08 02:11:00,78.7,75.0,29.98,SSW,200,5.0,8.0,88,0.00,,,0.00,weatherlink.com 1.10,2013-06-08 06:11:00,
2013-06-08 02:42:00,78.4,75.0,29.98,SSW,204,3.0,7.0,88,0.00,,,0.00,weatherlink.com 1.10,2013-06-08 06:42:00,
2013-06-08 03:11:00,78.2,74.0,29.98,WSW,238,4.0,8.0,88,0.00,,,0.00,weatherlink.com 1.10,2013-06-08 07:11:00,
2013-06-08 03:26:00,78.3,75.0,29.98,South,184,4.0,9.0,88,0.00,,,0.00,weatherlink.com 1.10,2013-06-08 07:26:00,
2013-06-08 03:41:00,78.3,74.0,29.97,SSW,205,6.0,10.0,87,0.00,,,0.00,weatherlink.com 1.10,2013-06-08 07:41:00,
2013-06-08 03:56:00,78.2,74.0,29.97,SW,235,4.0,8.0,87,0.00,,,0.00,weatherlink.com 1.10,2013-06-08 07:56:00,
2013-06-08 04:11:00,78.3,75.0,29.97,SW,219,4.0,9.0,88,0.00,,,0.00,weatherlink.com 1.10,2013-06-08 08:11:00,
2013-06-08 04:26:00,78.0,74.0,29.97,SSE,163,2.0,6.0,87,0.00,,,0.00,weatherlink.com 1.10,2013-06-08 08:26:00,
2013-06-08 04:41:00,78.2,74.0,29.97,SW,232,6.0,10.0,87,0.00,,,0.00,weatherlink.com 1.10,2013-06-08 08:41:00,
2013-06-08 04:56:00,78.2,74.0,29.97,WSW,246,1.0,5.0,88,0.00,,,0.00,weatherlink.com 1.10,2013-06-08 08:56:00,
2013-06-08 05:11:00,78.1,75.0,29.97,SW,215,0.0,4.0,89,0.00,,,0.00,weatherlink.com 1.10,2013-06-08 09:11:00,
2013-06-08 05:26:00,78.0,75.0,29.98,WSW,238,1.0,4.0,90,0.00,,,0.00,weatherlink.com 1.10,2013-06-08 09:26:00,
2013-06-08 05:41:00,78.0,75.0,29.98,SW,225,1.0,5.0,90,0.00,,,0.00,weatherlink.com 1.10,2013-06-08 09:41:00,
2013-06-08 05:56:00,78.0,75.0,29.98,WSW,249,0.0,4.0,90,0.00,,,0.00,weatherlink.com 1.10,2013-06-08 09:56:00,
2013-06-08 06:11:00,77.9,75.0,29.98,SW,229,1.0,4.0,91,0.00,,,0.00,weatherlink.com 1.10,2013-06-08 10:11:00,
2013-06-08 06:26:00,77.9,75.0,29.98,SW,229,3.0,5.0,91,0.00,,,0.00,weatherlink.com 1.10,2013-06-08 10:26:00,
2013-06-08 06:41:00,78.1,75.0,29.98,SW,224,2.0,6.0,90,0.00,,,0.00,weatherlink.com 1.10,2013-06-08 10:41:00,
2013-06-08 06:56:00,78.3,75.0,29.99,SSW,195,0.0,4.0,90,0.00,,,0.00,weatherlink.com 1.10,2013-06-08 10:56:00,
2013-06-08 07:11:00,78.6,75.0,29.99,WSW,238,3.0,4.0,89,0.00,,,0.00,weatherlink.com 1.10,2013-06-08 11:11:00,
2013-06-08 07:26:00,78.8,75.0,30.00,SW,224,2.0,5.0,88,0.00,,,0.00,weatherlink.com 1.10,2013-06-08 11:26:00,
2013-06-08 07:41:00,79.1,75.0,30.00,SW,229,5.0,6.0,88,0.00,,,0.00,weatherlink.com 1.10,2013-06-08 11:41:00,
2013-06-08 07:56:00,79.4,75.0,30.00,SSW,204,2.0,7.0,87,0.00,,,0.00,weatherlink.com 1.10,2013-06-08 11:56:00,
2013-06-08 08:11:00,79.7,76.0,30.01,SW,221,3.0,6.0,87,0.00,,,0.00,weatherlink.com 1.10,2013-06-08 12:11:00,
2013-06-08 08:26:00,80.3,76.0,30.01,SSW,211,3.0,5.0,86,0.00,,,0.00,weatherlink.com 1.10,2013-06-08 12:26:00,
2013-06-08 08:42:00,81.4,76.0,30.01,SW,235,3.0,6.0,83,0.00,,,0.00,weatherlink.com 1.10,2013-06-08 12:42:00,
2013-06-08 08:58:00,81.8,76.0,30.02,South,187,2.0,6.0,83,0.00,,,0.00,weatherlink.com 1.10,2013-06-08 12:58:00,
2013-06-08 09:12:00,81.9,76.0,30.02,WSW,238,4.0,5.0,83,0.00,,,0.00,weatherlink.com 1.10,2013-06-08 13:12:00,
2013-06-08 09:27:00,81.7,76.0,30.02,SSW,208,3.0,6.0,83,0.00,,,0.00,weatherlink.com 1.10,2013-06-08 13:27:00,
2013-06-08 09:42:00,83.4,77.0,30.03,SW,219,3.0,7.0,81,0.00,,,0.00,weatherlink.com 1.10,2013-06-08 13:42:00,
2013-06-08 09:57:00,83.7,77.0,30.03,SW,229,6.0,7.0,80,0.00,,,0.00,weatherlink.com 1.10,2013-06-08 13:57:00,
2013-06-08 10:12:00,84.1,77.0,30.04,SW,225,3.0,7.0,80,0.00,,,0.00,weatherlink.com 1.10,2013-06-08 14:12:00,
2013-06-08 10:27:00,85.1,77.0,30.03,SSW,210,5.0,9.0,77,0.00,,,0.00,weatherlink.com 1.10,2013-06-08 14:27:00,
2013-06-08 10:42:00,84.7,77.0,30.03,SW,231,3.0,10.0,78,0.00,,,0.00,weatherlink.com 1.10,2013-06-08 14:42:00,
2013-06-08 10:57:00,83.8,77.0,30.04,South,187,2.0,8.0,80,0.00,,,0.00,weatherlink.com 1.10,2013-06-08 14:57:00,
2013-06-08 11:12:00,83.2,77.0,30.04,SW,218,8.0,10.0,82,0.00,,,0.00,weatherlink.com 1.10,2013-06-08 15:12:00,
2013-06-08 11:27:00,84.2,77.0,30.04,SW,226,3.0,8.0,80,0.00,,,0.00,weatherlink.com 1.10,2013-06-08 15:27:00,
2013-06-08 11:42:00,84.5,77.0,30.04,SW,215,6.0,10.0,79,0.00,,,0.00,weatherlink.com 1.10,2013-06-08 15:42:00,
2013-06-08 11:57:00,85.0,78.0,30.05,SW,217,8.0,10.0,80,0.00,,,0.00,weatherlink.com 1.10,2013-06-08 15:57:00,
2013-06-08 12:12:00,83.6,77.0,30.05,SW,217,6.0,13.0,81,0.00,,,0.00,weatherlink.com 1.10,2013-06-08 16:12:00,
2013-06-08 12:27:00,84.3,78.0,30.05,SW,231,5.0,10.0,82,0.00,,,0.00,weatherlink.com 1.10,2013-06-08 16:27:00,
2013-06-08 12:42:00,84.0,78.0,30.05,SW,219,9.0,9.0,82,0.00,,,0.00,weatherlink.com 1.10,2013-06-08 16:42:00,
2013-06-08 12:57:00,84.0,78.0,30.05,SW,224,5.0,8.0,83,0.00,,,0.00,weatherlink.com 1.10,2013-06-08 16:57:00,
2013-06-08 13:12:00,84.0,78.0,30.04,SSW,212,3.0,9.0,82,0.00,,,0.00,weatherlink.com 1.10,2013-06-08 17:12:00,
2013-06-08 13:27:00,83.6,78.0,30.04,WSW,249,4.0,9.0,84,0.00,,,0.00,weatherlink.com 1.10,2013-06-08 17:27:00,
2013-06-08 13:42:00,83.8,79.0,30.03,SW,224,7.0,9.0,84,0.00,,,0.00,weatherlink.com 1.10,2013-06-08 17:42:00,
2013-06-08 13:57:00,84.4,78.0,30.02,SW,231,9.0,10.0,82,0.00,,,0.00,weatherlink.com 1.10,2013-06-08 17:57:00,
2013-06-08 14:12:00,84.8,79.0,30.01,SSW,211,6.0,10.0,82,0.00,,,0.00,weatherlink.com 1.10,2013-06-08 18:12:00,
2013-06-08 14:27:00,85.0,79.0,30.01,SW,217,4.0,8.0,83,0.00,,,0.00,weatherlink.com 1.10,2013-06-08 18:27:00,
2013-06-08 14:42:00,84.9,79.0,30.01,SW,228,4.0,9.0,81,0.00,,,0.00,weatherlink.com 1.10,2013-06-08 18:42:00,
2013-06-08 14:57:00,84.3,79.0,30.01,WNW,283,3.0,7.0,83,0.00,,,0.00,weatherlink.com 1.10,2013-06-08 18:57:00,
2013-06-08 15:12:00,84.5,79.0,30.01,SW,215,4.0,8.0,83,0.00,,,0.00,weatherlink.com 1.10,2013-06-08 19:12:00,
2013-06-08 15:27:00,84.0,79.0,30.01,WSW,255,3.0,8.0,84,0.00,,,0.00,weatherlink.com 1.10,2013-06-08 19:27:00,
2013-06-08 15:42:00,83.4,79.0,30.01,SW,219,4.0,8.0,86,0.00,,,0.00,weatherlink.com 1.10,2013-06-08 19:42:00,
2013-06-08 15:57:00,83.5,79.0,30.00,WSW,252,1.0,8.0,86,0.00,,,0.00,weatherlink.com 1.10,2013-06-08 19:57:00,
2013-06-08 16:27:00,84.9,80.0,30.01,NW,307,5.0,9.0,84,0.00,,,0.00,weatherlink.com 1.10,2013-06-08 20:27:00,
2013-06-08 16:42:00,85.2,80.0,30.02,WSW,255,6.0,7.0,84,0.00,,,0.00,weatherlink.com 1.10,2013-06-08 20:42:00,
2013-06-08 16:57:00,84.2,79.0,30.02,SW,217,5.0,10.0,84,0.00,,,0.00,weatherlink.com 1.10,2013-06-08 20:57:00,
2013-06-08 17:12:00,84.8,80.0,30.02,SW,222,3.0,9.0,85,0.00,,,0.00,weatherlink.com 1.10,2013-06-08 21:12:00,
2013-06-08 17:27:00,84.6,79.0,30.02,WSW,238,4.0,8.0,83,0.00,,,0.00,weatherlink.com 1.10,2013-06-08 21:27:00,
2013-06-08 17:42:00,80.2,74.0,30.04,SE,131,3.0,11.0,82,0.00,,,0.00,weatherlink.com 1.10,2013-06-08 21:42:00,
2013-06-08 17:57:00,76.0,73.0,30.04,SE,145,0.0,12.0,90,0.05,,,0.05,weatherlink.com 1.10,2013-06-08 21:57:00,
2013-06-08 18:13:00,74.4,72.0,30.04,South,169,4.0,9.0,93,0.13,,,0.13,weatherlink.com 1.10,2013-06-08 22:13:00,
2013-06-08 18:28:00,74.1,72.0,30.05,ESE,114,4.0,11.0,94,0.29,,,0.29,weatherlink.com 1.10,2013-06-08 22:28:00,
2013-06-08 18:43:00,73.3,72.0,30.05,SE,132,1.0,8.0,94,0.39,,,0.39,weatherlink.com 1.10,2013-06-08 22:43:00,
2013-06-08 18:58:00,73.3,72.0,30.06,ESE,105,1.0,5.0,95,0.36,,,0.41,weatherlink.com 1.10,2013-06-08 22:58:00,
2013-06-08 19:13:00,73.0,71.0,30.06,East,97,1.0,3.0,94,0.29,,,0.42,weatherlink.com 1.10,2013-06-08 23:13:00,
2013-06-08 19:28:00,73.4,72.0,30.07,East,86,1.0,5.0,95,0.13,,,0.43,weatherlink.com 1.10,2013-06-08 23:28:00,
2013-06-08 19:43:00,73.5,72.0,30.07,ENE,71,4.0,7.0,95,0.06,,,0.45,weatherlink.com 1.10,2013-06-08 23:43:00,
2013-06-08 19:58:00,73.4,72.0,30.08,East,85,4.0,8.0,95,0.05,,,0.46,weatherlink.com 1.10,2013-06-08 23:58:00,
2013-06-08 20:13:00,73.3,72.0,30.07,East,82,1.0,8.0,95,0.05,,,0.47,weatherlink.com 1.10,2013-06-09 00:13:00,
2013-06-08 20:28:00,73.5,72.0,30.08,East,91,3.0,8.0,95,0.04,,,0.47,weatherlink.com 1.10,2013-06-09 00:28:00,
2013-06-08 20:43:00,73.3,72.0,30.08,NE,52,2.0,8.0,95,0.01,,,0.47,weatherlink.com 1.10,2013-06-09 00:43:00,
2013-06-08 20:58:00,73.5,72.0,30.08,SE,127,2.0,8.0,95,0.00,,,0.47,weatherlink.com 1.10,2013-06-09 00:58:00,
2013-06-08 21:13:00,73.9,72.0,30.09,SE,125,1.0,6.0,95,0.00,,,0.47,weatherlink.com 1.10,2013-06-09 01:13:00,
2013-06-08 21:28:00,73.7,72.0,30.08,ESE,104,1.0,5.0,95,0.00,,,0.47,weatherlink.com 1.10,2013-06-09 01:28:00,
2013-06-08 21:43:00,73.5,72.0,30.08,NE,56,4.0,9.0,94,0.00,,,0.47,weatherlink.com 1.10,2013-06-09 01:43:00,
2013-06-08 21:58:00,73.7,72.0,30.07,East,79,4.0,6.0,93,0.00,,,0.47,weatherlink.com 1.10,2013-06-09 01:58:00,
2013-06-08 22:13:00,74.1,72.0,30.07,ESE,103,2.0,3.0,92,0.00,,,0.47,weatherlink.com 1.10,2013-06-09 02:13:00,
2013-06-08 22:28:00,74.0,71.0,30.06,WSW,242,0.0,5.0,91,0.00,,,0.47,weatherlink.com 1.10,2013-06-09 02:28:00,
2013-06-08 22:43:00,73.6,71.0,30.06,East,91,1.0,4.0,91,0.00,,,0.47,weatherlink.com 1.10,2013-06-09 02:43:00,
2013-06-08 22:58:00,73.5,71.0,30.07,SW,222,2.0,3.0,92,0.00,,,0.47,weatherlink.com 1.10,2013-06-09 02:58:00,
2013-06-08 23:13:00,73.2,71.0,30.07,SSE,157,0.0,5.0,93,0.00,,,0.47,weatherlink.com 1.10,2013-06-09 03:13:00,
2013-06-08 23:28:00,73.4,71.0,30.07,SSE,164,1.0,6.0,93,0.00,,,0.47,weatherlink.com 1.10,2013-06-09 03:28:00,
2013-06-08 23:43:00,73.5,71.0,30.07,SSE,165,1.0,3.0,93,0.00,,,0.47,weatherlink.com 1.10,2013-06-09 03:43:00,
2013-06-08 23:58:00,74.0,72.0,30.07,SSW,200,1.0,5.0,92,0.00,,,0.47,weatherlink.com 1.10,2013-06-09 03:58:00,